Year,Month,Day,Hour,Minute,Value (Times are PST for temperature in C)
2008,10,08,00,00,8.40
2008,10,08,00,01,8.40
2008,10,08,00,02,8.40
2008,10,08,00,03,8.40
2008,10,08,00,04,8.50
2008,10,08,00,05,8.50
2008,10,08,00,06,8.60
2008,10,08,00,07,8.60
2008,10,08,00,08,8.60
2008,10,08,00,09,8.60
2008,10,08,00,10,8.60
2008,10,08,00,11,8.60
2008,10,08,00,12,8.60
2008,10,08,00,13,8.50
2008,10,08,00,14,8.50
2008,10,08,00,15,8.40
2008,10,08,00,16,8.40
2008,10,08,00,17,8.40
2008,10,08,00,18,8.30
2008,10,08,00,19,8.30
2008,10,08,00,20,8.20
2008,10,08,00,21,8.20
2008,10,08,00,22,8.20
2008,10,08,00,23,8.10
2008,10,08,00,24,8.10
2008,10,08,00,25,8.10
2008,10,08,00,26,8.10
2008,10,08,00,27,8.00
2008,10,08,00,28,8.00
2008,10,08,00,29,8.00
2008,10,08,00,30,7.90
2008,10,08,00,31,7.90
2008,10,08,00,32,7.90
2008,10,08,00,33,7.80
2008,10,08,00,34,7.80
2008,10,08,00,35,7.80
2008,10,08,00,36,7.70
2008,10,08,00,37,7.70
2008,10,08,00,38,7.60
2008,10,08,00,39,7.60
2008,10,08,00,40,7.60
2008,10,08,00,41,7.50
2008,10,08,00,42,7.50
2008,10,08,00,43,7.40
2008,10,08,00,44,7.40
2008,10,08,00,45,7.40
2008,10,08,00,46,7.30
2008,10,08,00,47,7.30
2008,10,08,00,48,7.30
2008,10,08,00,49,7.20
2008,10,08,00,50,7.20
2008,10,08,00,51,7.20
2008,10,08,00,52,7.20
2008,10,08,00,53,7.10
2008,10,08,00,54,7.10
2008,10,08,00,55,7.00
2008,10,08,00,56,7.00
2008,10,08,00,57,7.00
2008,10,08,00,58,7.00
2008,10,08,00,59,7.00
2008,10,08,01,00,6.90
2008,10,08,01,01,7.00
2008,10,08,01,02,7.00
2008,10,08,01,03,7.00
2008,10,08,01,04,6.90
2008,10,08,01,05,7.00
2008,10,08,01,06,7.00
2008,10,08,01,07,7.00
2008,10,08,01,08,7.00
2008,10,08,01,09,6.90
2008,10,08,01,10,6.90
2008,10,08,01,11,6.90
2008,10,08,01,12,6.90
2008,10,08,01,13,6.90
2008,10,08,01,14,6.90
2008,10,08,01,15,6.80
2008,10,08,01,16,6.80
2008,10,08,01,17,6.80
2008,10,08,01,18,6.80
2008,10,08,01,19,6.80
2008,10,08,01,20,6.80
2008,10,08,01,21,6.80
2008,10,08,01,22,6.80
2008,10,08,01,23,6.80
2008,10,08,01,24,6.80
2008,10,08,01,25,6.80
2008,10,08,01,26,6.70
2008,10,08,01,27,6.70
2008,10,08,01,28,6.70
2008,10,08,01,29,6.70
2008,10,08,01,30,6.70
2008,10,08,01,31,6.60
2008,10,08,01,32,6.60
2008,10,08,01,33,6.60
2008,10,08,01,34,6.60
2008,10,08,01,35,6.50
2008,10,08,01,36,6.50
2008,10,08,01,37,6.40
2008,10,08,01,38,6.40
2008,10,08,01,39,6.40
2008,10,08,01,40,6.30
2008,10,08,01,41,6.30
2008,10,08,01,42,6.30
2008,10,08,01,43,6.30
2008,10,08,01,44,6.30
2008,10,08,01,45,6.20
2008,10,08,01,46,6.20
2008,10,08,01,47,6.20
2008,10,08,01,48,6.20
2008,10,08,01,49,6.10
2008,10,08,01,50,6.10
2008,10,08,01,51,6.10
2008,10,08,01,52,6.10
2008,10,08,01,53,6.10
2008,10,08,01,54,6.00
2008,10,08,01,55,6.00
2008,10,08,01,56,6.00
2008,10,08,01,57,5.90
2008,10,08,01,58,5.90
2008,10,08,01,59,5.90
2008,10,08,02,00,5.80
2008,10,08,02,01,5.80
2008,10,08,02,02,5.80
2008,10,08,02,03,5.80
2008,10,08,02,04,5.80
2008,10,08,02,05,5.80
2008,10,08,02,06,5.70
2008,10,08,02,07,5.70
2008,10,08,02,08,5.70
2008,10,08,02,09,5.70
2008,10,08,02,10,5.70
2008,10,08,02,11,5.70
2008,10,08,02,12,5.70
2008,10,08,02,13,5.70
2008,10,08,02,14,5.70
2008,10,08,02,15,5.70
2008,10,08,02,16,5.70
2008,10,08,02,17,5.70
2008,10,08,02,18,5.70
2008,10,08,02,19,5.70
2008,10,08,02,20,5.70
2008,10,08,02,21,5.70
2008,10,08,02,22,5.70
2008,10,08,02,23,5.70
2008,10,08,02,24,5.70
2008,10,08,02,25,5.70
2008,10,08,02,26,5.70
2008,10,08,02,27,5.70
2008,10,08,02,28,5.70
2008,10,08,02,29,5.70
2008,10,08,02,30,5.70
2008,10,08,02,31,5.70
2008,10,08,02,32,5.70
2008,10,08,02,33,5.70
2008,10,08,02,34,5.60
2008,10,08,02,35,5.60
2008,10,08,02,36,5.60
2008,10,08,02,37,5.60
2008,10,08,02,38,5.60
2008,10,08,02,39,5.60
2008,10,08,02,40,5.60
2008,10,08,02,41,5.60
2008,10,08,02,42,5.60
2008,10,08,02,43,5.60
2008,10,08,02,44,5.50
2008,10,08,02,45,5.50
2008,10,08,02,46,5.50
2008,10,08,02,47,5.50
2008,10,08,02,48,5.50
2008,10,08,02,49,5.50
2008,10,08,02,50,5.50
2008,10,08,02,51,5.40
2008,10,08,02,52,5.40
2008,10,08,02,53,5.40
2008,10,08,02,54,5.40
2008,10,08,02,55,5.40
2008,10,08,02,56,5.40
2008,10,08,02,57,5.30
2008,10,08,02,58,5.30
2008,10,08,02,59,5.30
2008,10,08,03,00,5.30
2008,10,08,03,01,5.30
2008,10,08,03,02,5.30
2008,10,08,03,03,5.20
2008,10,08,03,04,5.20
2008,10,08,03,05,5.20
2008,10,08,03,06,5.20
2008,10,08,03,07,5.20
2008,10,08,03,08,5.20
2008,10,08,03,09,5.20
2008,10,08,03,10,5.20
2008,10,08,03,11,5.10
2008,10,08,03,12,5.10
2008,10,08,03,13,5.10
2008,10,08,03,14,5.10
2008,10,08,03,15,5.10
2008,10,08,03,16,5.10
2008,10,08,03,17,5.10
2008,10,08,03,18,5.00
2008,10,08,03,19,5.00
2008,10,08,03,20,5.00
2008,10,08,03,21,5.00
2008,10,08,03,22,5.00
2008,10,08,03,23,5.00
2008,10,08,03,24,5.10
2008,10,08,03,25,5.10
2008,10,08,03,26,5.10
2008,10,08,03,27,5.10
2008,10,08,03,28,5.10
2008,10,08,03,29,5.00
2008,10,08,03,30,5.00
2008,10,08,03,31,5.00
2008,10,08,03,32,5.00
2008,10,08,03,33,4.90
2008,10,08,03,34,4.90
2008,10,08,03,35,4.90
2008,10,08,03,36,4.90
2008,10,08,03,37,4.80
2008,10,08,03,38,4.80
2008,10,08,03,39,4.80
2008,10,08,03,40,4.80
2008,10,08,03,41,4.80
2008,10,08,03,42,4.80
2008,10,08,03,43,4.80
2008,10,08,03,44,4.80
2008,10,08,03,45,4.80
2008,10,08,03,46,4.80
2008,10,08,03,47,4.80
2008,10,08,03,48,4.70
2008,10,08,03,49,4.70
2008,10,08,03,50,4.70
2008,10,08,03,51,4.70
2008,10,08,03,52,4.70
2008,10,08,03,53,4.70
2008,10,08,03,54,4.70
2008,10,08,03,55,4.70
2008,10,08,03,56,4.70
2008,10,08,03,57,4.70
2008,10,08,03,58,4.70
2008,10,08,03,59,4.70
2008,10,08,04,00,4.70
2008,10,08,04,01,4.70
2008,10,08,04,02,4.70
2008,10,08,04,03,4.70
2008,10,08,04,04,4.70
2008,10,08,04,05,4.70
2008,10,08,04,06,4.70
2008,10,08,04,07,4.70
2008,10,08,04,08,4.70
2008,10,08,04,09,4.70
2008,10,08,04,10,4.70
2008,10,08,04,11,4.70
2008,10,08,04,12,4.60
2008,10,08,04,13,4.60
2008,10,08,04,14,4.60
2008,10,08,04,15,4.60
2008,10,08,04,16,4.60
2008,10,08,04,17,4.60
2008,10,08,04,18,4.60
2008,10,08,04,19,4.60
2008,10,08,04,20,4.50
2008,10,08,04,21,4.50
2008,10,08,04,22,4.50
2008,10,08,04,23,4.50
2008,10,08,04,24,4.50
2008,10,08,04,25,4.50
2008,10,08,04,26,4.50
2008,10,08,04,27,4.50
2008,10,08,04,28,4.50
2008,10,08,04,29,4.50
2008,10,08,04,30,4.50
2008,10,08,04,31,4.50
2008,10,08,04,32,4.50
2008,10,08,04,33,4.50
2008,10,08,04,34,4.50
2008,10,08,04,35,4.40
2008,10,08,04,36,4.40
2008,10,08,04,37,4.40
2008,10,08,04,38,4.40
2008,10,08,04,39,4.40
2008,10,08,04,40,4.30
2008,10,08,04,41,4.30
2008,10,08,04,42,4.30
2008,10,08,04,43,4.30
2008,10,08,04,44,4.30
2008,10,08,04,45,4.30
2008,10,08,04,46,4.30
2008,10,08,04,47,4.30
2008,10,08,04,48,4.30
2008,10,08,04,49,4.30
2008,10,08,04,50,4.30
2008,10,08,04,51,4.30
2008,10,08,04,52,4.40
2008,10,08,04,53,4.40
2008,10,08,04,54,4.40
2008,10,08,04,55,4.40
2008,10,08,04,56,4.50
2008,10,08,04,57,4.50
2008,10,08,04,58,4.50
2008,10,08,04,59,4.60
2008,10,08,05,00,4.60
2008,10,08,05,01,4.60
2008,10,08,05,02,4.60
2008,10,08,05,03,4.70
2008,10,08,05,04,4.70
2008,10,08,05,05,4.70
2008,10,08,05,06,4.70
2008,10,08,05,07,4.70
2008,10,08,05,08,4.70
2008,10,08,05,09,4.60
2008,10,08,05,10,4.60
2008,10,08,05,11,4.60
2008,10,08,05,12,4.60
2008,10,08,05,13,4.60
2008,10,08,05,14,4.60
2008,10,08,05,15,4.60
2008,10,08,05,16,4.60
2008,10,08,05,17,4.60
2008,10,08,05,18,4.70
2008,10,08,05,19,4.70
2008,10,08,05,20,4.70
2008,10,08,05,21,4.70
2008,10,08,05,22,4.70
2008,10,08,05,23,4.70
2008,10,08,05,24,4.70
2008,10,08,05,25,4.80
2008,10,08,05,26,4.80
2008,10,08,05,27,4.80
2008,10,08,05,28,4.90
2008,10,08,05,29,4.90
2008,10,08,05,30,5.00
2008,10,08,05,31,5.00
2008,10,08,05,32,5.00
2008,10,08,05,33,5.10
2008,10,08,05,34,5.10
2008,10,08,05,35,5.10
2008,10,08,05,36,5.10
2008,10,08,05,37,5.10
2008,10,08,05,38,5.00
2008,10,08,05,39,5.00
2008,10,08,05,40,4.90
2008,10,08,05,41,4.90
2008,10,08,05,42,4.80
2008,10,08,05,43,4.80
2008,10,08,05,44,4.80
2008,10,08,05,45,4.80
2008,10,08,05,46,4.80
2008,10,08,05,47,4.80
2008,10,08,05,48,4.80
2008,10,08,05,49,4.80
2008,10,08,05,50,4.80
2008,10,08,05,51,4.80
2008,10,08,05,52,4.80
2008,10,08,05,53,4.80
2008,10,08,05,54,4.80
2008,10,08,05,55,4.90
2008,10,08,05,56,4.90
2008,10,08,05,57,4.90
2008,10,08,05,58,5.00
2008,10,08,05,59,5.00
2008,10,08,06,00,5.00
2008,10,08,06,01,5.00
2008,10,08,06,02,5.10
2008,10,08,06,03,5.10
2008,10,08,06,04,5.10
2008,10,08,06,05,5.10
2008,10,08,06,06,5.10
2008,10,08,06,07,5.20
2008,10,08,06,08,5.20
2008,10,08,06,09,5.20
2008,10,08,06,10,5.20
2008,10,08,06,11,5.10
2008,10,08,06,12,5.10
2008,10,08,06,13,5.10
2008,10,08,06,14,5.10
2008,10,08,06,15,5.10
2008,10,08,06,16,5.10
2008,10,08,06,17,5.10
2008,10,08,06,18,5.10
2008,10,08,06,19,5.10
2008,10,08,06,20,5.10
2008,10,08,06,21,5.10
2008,10,08,06,22,5.10
2008,10,08,06,23,5.10
2008,10,08,06,24,5.10
2008,10,08,06,25,5.10
2008,10,08,06,26,5.10
2008,10,08,06,27,5.10
2008,10,08,06,28,5.10
2008,10,08,06,29,5.10
2008,10,08,06,30,5.10
2008,10,08,06,31,5.10
2008,10,08,06,32,5.10
2008,10,08,06,33,5.10
2008,10,08,06,34,5.10
2008,10,08,06,35,5.10
2008,10,08,06,36,5.20
2008,10,08,06,37,5.20
2008,10,08,06,38,5.20
2008,10,08,06,39,5.20
2008,10,08,06,40,5.20
2008,10,08,06,41,5.20
2008,10,08,06,42,5.20
2008,10,08,06,43,5.20
2008,10,08,06,44,5.20
2008,10,08,06,45,5.20
2008,10,08,06,46,5.20
2008,10,08,06,47,5.30
2008,10,08,06,48,5.30
2008,10,08,06,49,5.30
2008,10,08,06,50,5.30
2008,10,08,06,51,5.30
2008,10,08,06,52,5.30
2008,10,08,06,53,5.30
2008,10,08,06,54,5.30
2008,10,08,06,55,5.30
2008,10,08,06,56,5.30
2008,10,08,06,57,5.30
2008,10,08,06,58,5.30
2008,10,08,06,59,5.30
2008,10,08,07,00,5.30
2008,10,08,07,01,5.30
2008,10,08,07,02,5.30
2008,10,08,07,03,5.40
2008,10,08,07,04,5.40
2008,10,08,07,05,5.40
2008,10,08,07,06,5.40
2008,10,08,07,07,5.40
2008,10,08,07,08,5.50
2008,10,08,07,09,5.50
2008,10,08,07,10,5.50
2008,10,08,07,11,5.50
2008,10,08,07,12,5.50
2008,10,08,07,13,5.50
2008,10,08,07,14,5.50
2008,10,08,07,15,5.50
2008,10,08,07,16,5.50
2008,10,08,07,17,5.50
2008,10,08,07,18,5.50
2008,10,08,07,19,5.60
2008,10,08,07,20,5.60
2008,10,08,07,21,5.60
2008,10,08,07,22,5.60
2008,10,08,07,23,5.60
2008,10,08,07,24,5.60
2008,10,08,07,25,5.60
2008,10,08,07,26,5.60
2008,10,08,07,27,5.60
2008,10,08,07,28,5.60
2008,10,08,07,29,5.60
2008,10,08,07,30,5.60
2008,10,08,07,31,5.60
2008,10,08,07,32,5.60
2008,10,08,07,33,5.60
2008,10,08,07,34,5.60
2008,10,08,07,35,5.60
2008,10,08,07,36,5.60
2008,10,08,07,37,5.60
2008,10,08,07,38,5.60
2008,10,08,07,39,5.60
2008,10,08,07,40,5.60
2008,10,08,07,41,5.70
2008,10,08,07,42,5.60
2008,10,08,07,43,5.60
2008,10,08,07,44,5.60
2008,10,08,07,45,5.60
2008,10,08,07,46,5.60
2008,10,08,07,47,5.60
2008,10,08,07,48,5.60
2008,10,08,07,49,5.70
2008,10,08,07,50,5.70
2008,10,08,07,51,5.70
2008,10,08,07,52,5.70
2008,10,08,07,53,5.70
2008,10,08,07,54,5.70
2008,10,08,07,55,5.70
2008,10,08,07,56,5.70
2008,10,08,07,57,5.70
2008,10,08,07,58,5.70
2008,10,08,07,59,5.70
2008,10,08,08,00,5.70
2008,10,08,08,01,5.70
2008,10,08,08,02,5.70
2008,10,08,08,03,5.70
2008,10,08,08,04,5.70
2008,10,08,08,05,5.60
2008,10,08,08,06,5.60
2008,10,08,08,07,5.60
2008,10,08,08,08,5.60
2008,10,08,08,09,5.60
2008,10,08,08,10,5.60
2008,10,08,08,11,5.60
2008,10,08,08,12,5.60
2008,10,08,08,13,5.60
2008,10,08,08,14,5.60
2008,10,08,08,15,5.60
2008,10,08,08,16,5.60
2008,10,08,08,17,5.60
2008,10,08,08,18,5.60
2008,10,08,08,19,5.60
2008,10,08,08,20,5.60
2008,10,08,08,21,5.60
2008,10,08,08,22,5.60
2008,10,08,08,23,5.70
2008,10,08,08,24,5.70
2008,10,08,08,25,5.80
2008,10,08,08,26,5.80
2008,10,08,08,27,5.90
2008,10,08,08,28,5.90
2008,10,08,08,29,5.90
2008,10,08,08,30,6.00
2008,10,08,08,31,6.00
2008,10,08,08,32,6.10
2008,10,08,08,33,6.10
2008,10,08,08,34,6.10
2008,10,08,08,35,6.20
2008,10,08,08,36,6.20
2008,10,08,08,37,6.20
2008,10,08,08,38,6.20
2008,10,08,08,39,6.30
2008,10,08,08,40,6.30
2008,10,08,08,41,6.30
2008,10,08,08,42,6.30
2008,10,08,08,43,6.30
2008,10,08,08,44,6.30
2008,10,08,08,45,6.30
2008,10,08,08,46,6.30
2008,10,08,08,47,6.30
2008,10,08,08,48,6.40
2008,10,08,08,49,6.40
2008,10,08,08,50,6.50
2008,10,08,08,51,6.50
2008,10,08,08,52,6.60
2008,10,08,08,53,6.60
2008,10,08,08,54,6.60
2008,10,08,08,55,6.70
2008,10,08,08,56,6.70
2008,10,08,08,57,6.70
2008,10,08,08,58,6.80
2008,10,08,08,59,6.80
2008,10,08,09,00,6.90
2008,10,08,09,01,7.00
2008,10,08,09,02,7.00
2008,10,08,09,03,7.10
2008,10,08,09,04,7.10
2008,10,08,09,05,7.20
2008,10,08,09,06,7.20
2008,10,08,09,07,7.30
2008,10,08,09,08,7.30
2008,10,08,09,09,7.40
2008,10,08,09,10,7.50
2008,10,08,09,11,7.60
2008,10,08,09,12,7.60
2008,10,08,09,13,7.70
2008,10,08,09,14,7.80
2008,10,08,09,15,7.80
2008,10,08,09,16,7.80
2008,10,08,09,17,7.90
2008,10,08,09,18,8.00
2008,10,08,09,19,8.10
2008,10,08,09,20,8.10
2008,10,08,09,21,8.20
2008,10,08,09,22,8.20
2008,10,08,09,23,8.30
2008,10,08,09,24,8.30
2008,10,08,09,25,8.40
2008,10,08,09,26,8.40
2008,10,08,09,27,8.50
2008,10,08,09,28,8.50
2008,10,08,09,29,8.60
2008,10,08,09,30,8.70
2008,10,08,09,31,8.70
2008,10,08,09,32,8.80
2008,10,08,09,33,8.90
2008,10,08,09,34,8.90
2008,10,08,09,35,9.00
2008,10,08,09,36,9.10
2008,10,08,09,37,9.20
2008,10,08,09,38,9.20
2008,10,08,09,39,9.30
2008,10,08,09,40,9.40
2008,10,08,09,41,9.40
2008,10,08,09,42,9.50
2008,10,08,09,43,9.50
2008,10,08,09,44,9.60
2008,10,08,09,45,9.60
2008,10,08,09,46,9.70
2008,10,08,09,47,9.80
2008,10,08,09,48,9.80
2008,10,08,09,49,9.90
2008,10,08,09,50,9.90
2008,10,08,09,51,9.90
2008,10,08,09,52,10.00
2008,10,08,09,53,10.00
2008,10,08,09,54,10.10
2008,10,08,09,55,10.10
2008,10,08,09,56,10.20
2008,10,08,09,57,10.30
2008,10,08,09,58,10.30
2008,10,08,09,59,10.40
2008,10,08,10,00,10.50
2008,10,08,10,01,10.50
2008,10,08,10,02,10.60
2008,10,08,10,03,10.70
2008,10,08,10,04,10.80
2008,10,08,10,05,10.90
2008,10,08,10,06,10.90
2008,10,08,10,07,11.00
2008,10,08,10,08,11.00
2008,10,08,10,09,11.10
2008,10,08,10,10,11.10
2008,10,08,10,11,11.10
2008,10,08,10,12,11.10
2008,10,08,10,13,11.10
2008,10,08,10,14,11.10
2008,10,08,10,15,11.10
2008,10,08,10,16,11.20
2008,10,08,10,17,11.20
2008,10,08,10,18,11.30
2008,10,08,10,19,11.30
2008,10,08,10,20,11.30
2008,10,08,10,21,11.40
2008,10,08,10,22,11.50
2008,10,08,10,23,11.60
2008,10,08,10,24,11.60
2008,10,08,10,25,11.60
2008,10,08,10,26,11.70
2008,10,08,10,27,11.70
2008,10,08,10,28,11.70
2008,10,08,10,29,11.80
2008,10,08,10,30,11.80
2008,10,08,10,31,11.90
2008,10,08,10,32,11.90
2008,10,08,10,33,12.00
2008,10,08,10,34,12.10
2008,10,08,10,35,12.10
2008,10,08,10,36,12.10
2008,10,08,10,37,12.10
2008,10,08,10,38,12.10
2008,10,08,10,39,12.10
2008,10,08,10,40,12.10
2008,10,08,10,41,12.10
2008,10,08,10,42,12.20
2008,10,08,10,43,12.20
2008,10,08,10,44,12.30
2008,10,08,10,45,12.30
2008,10,08,10,46,12.30
2008,10,08,10,47,12.40
2008,10,08,10,48,12.40
2008,10,08,10,49,12.50
2008,10,08,10,50,12.50
2008,10,08,10,51,12.60
2008,10,08,10,52,12.60
2008,10,08,10,53,12.70
2008,10,08,10,54,12.80
2008,10,08,10,55,12.80
2008,10,08,10,56,12.90
2008,10,08,10,57,12.90
2008,10,08,10,58,12.90
2008,10,08,10,59,12.90
2008,10,08,11,00,12.90
2008,10,08,11,01,13.00
2008,10,08,11,02,13.00
2008,10,08,11,03,13.00
2008,10,08,11,04,13.00
2008,10,08,11,05,12.90
2008,10,08,11,06,12.90
2008,10,08,11,07,12.90
2008,10,08,11,08,12.90
2008,10,08,11,09,12.90
2008,10,08,11,10,13.00
2008,10,08,11,11,13.00
2008,10,08,11,12,13.00
2008,10,08,11,13,13.10
2008,10,08,11,14,13.10
2008,10,08,11,15,13.10
2008,10,08,11,16,13.10
2008,10,08,11,17,13.10
2008,10,08,11,18,13.10
2008,10,08,11,19,13.20
2008,10,08,11,20,13.20
2008,10,08,11,21,13.10
2008,10,08,11,22,13.10
2008,10,08,11,23,13.10
2008,10,08,11,24,13.00
2008,10,08,11,25,12.90
2008,10,08,11,26,12.80
2008,10,08,11,27,12.70
2008,10,08,11,28,12.60
2008,10,08,11,29,12.60
2008,10,08,11,30,12.60
2008,10,08,11,31,12.60
2008,10,08,11,32,12.60
2008,10,08,11,33,12.60
2008,10,08,11,34,12.60
2008,10,08,11,35,12.60
2008,10,08,11,36,12.60
2008,10,08,11,37,12.60
2008,10,08,11,38,12.60
2008,10,08,11,39,12.60
2008,10,08,11,40,12.60
2008,10,08,11,41,12.50
2008,10,08,11,42,12.50
2008,10,08,11,43,12.40
2008,10,08,11,44,12.40
2008,10,08,11,45,12.40
2008,10,08,11,46,12.30
2008,10,08,11,47,12.30
2008,10,08,11,48,12.30
2008,10,08,11,49,12.30
2008,10,08,11,50,12.30
2008,10,08,11,51,12.30
2008,10,08,11,52,12.30
2008,10,08,11,53,12.30
2008,10,08,11,54,12.30
2008,10,08,11,55,12.30
2008,10,08,11,56,12.20
2008,10,08,11,57,12.20
2008,10,08,11,58,12.10
2008,10,08,11,59,12.10
2008,10,08,12,00,12.10
2008,10,08,12,01,12.10
2008,10,08,12,02,12.10
2008,10,08,12,03,12.10
2008,10,08,12,04,12.00
2008,10,08,12,05,12.00
2008,10,08,12,06,12.00
2008,10,08,12,07,11.90
2008,10,08,12,08,11.90
2008,10,08,12,09,11.90
2008,10,08,12,10,11.90
2008,10,08,12,11,11.90
2008,10,08,12,12,11.90
2008,10,08,12,13,11.80
2008,10,08,12,14,11.80
2008,10,08,12,15,11.90
2008,10,08,12,16,11.90
2008,10,08,12,17,11.90
2008,10,08,12,18,11.90
2008,10,08,12,19,11.90
2008,10,08,12,20,11.90
2008,10,08,12,21,11.90
2008,10,08,12,22,12.00
2008,10,08,12,23,12.10
2008,10,08,12,24,12.10
2008,10,08,12,25,12.20
2008,10,08,12,26,12.30
2008,10,08,12,27,12.30
2008,10,08,12,28,12.50
2008,10,08,12,29,12.60
2008,10,08,12,30,12.70
2008,10,08,12,31,12.80
2008,10,08,12,32,12.90
2008,10,08,12,33,13.00
2008,10,08,12,34,13.10
2008,10,08,12,35,13.10
2008,10,08,12,36,13.10
2008,10,08,12,37,13.20
2008,10,08,12,38,13.20
2008,10,08,12,39,13.20
2008,10,08,12,40,13.30
2008,10,08,12,41,13.30
2008,10,08,12,42,13.30
2008,10,08,12,43,13.40
2008,10,08,12,44,13.40
2008,10,08,12,45,13.40
2008,10,08,12,46,13.50
2008,10,08,12,47,13.50
2008,10,08,12,48,13.50
2008,10,08,12,49,13.60
2008,10,08,12,50,13.60
2008,10,08,12,51,13.70
2008,10,08,12,52,13.80
2008,10,08,12,53,13.80
2008,10,08,12,54,13.90
2008,10,08,12,55,13.90
2008,10,08,12,56,13.90
2008,10,08,12,57,13.80
2008,10,08,12,58,13.80
2008,10,08,12,59,13.80
2008,10,08,13,00,13.70
2008,10,08,13,01,13.80
2008,10,08,13,02,13.80
2008,10,08,13,03,13.80
2008,10,08,13,04,13.80
2008,10,08,13,05,13.70
2008,10,08,13,06,13.70
2008,10,08,13,07,13.60
2008,10,08,13,08,13.60
2008,10,08,13,09,13.60
2008,10,08,13,10,13.70
2008,10,08,13,11,13.70
2008,10,08,13,12,13.60
2008,10,08,13,13,13.60
2008,10,08,13,14,13.60
2008,10,08,13,15,13.50
2008,10,08,13,16,13.50
2008,10,08,13,17,13.50
2008,10,08,13,18,13.60
2008,10,08,13,19,13.50
2008,10,08,13,20,13.40
2008,10,08,13,21,13.30
2008,10,08,13,22,13.30
2008,10,08,13,23,13.20
2008,10,08,13,24,13.20
2008,10,08,13,25,13.20
2008,10,08,13,26,13.20
2008,10,08,13,27,13.10
2008,10,08,13,28,13.10
2008,10,08,13,29,13.00
2008,10,08,13,30,13.00
2008,10,08,13,31,13.00
2008,10,08,13,32,13.00
2008,10,08,13,33,13.10
2008,10,08,13,34,13.20
2008,10,08,13,35,13.30
2008,10,08,13,36,13.30
2008,10,08,13,37,13.30
2008,10,08,13,38,13.40
2008,10,08,13,39,13.40
2008,10,08,13,40,13.50
2008,10,08,13,41,13.60
2008,10,08,13,42,13.70
2008,10,08,13,43,13.70
2008,10,08,13,44,13.70
2008,10,08,13,45,13.70
2008,10,08,13,46,13.70
2008,10,08,13,47,13.70
2008,10,08,13,48,13.70
2008,10,08,13,49,13.60
2008,10,08,13,50,13.60
2008,10,08,13,51,13.50
2008,10,08,13,52,13.40
2008,10,08,13,53,13.30
2008,10,08,13,54,13.30
2008,10,08,13,55,13.30
2008,10,08,13,56,13.20
2008,10,08,13,57,13.20
2008,10,08,13,58,13.20
2008,10,08,13,59,13.10
2008,10,08,14,00,13.10
2008,10,08,14,01,13.00
2008,10,08,14,02,13.00
2008,10,08,14,03,13.00
2008,10,08,14,04,12.90
2008,10,08,14,05,12.90
2008,10,08,14,06,12.90
2008,10,08,14,07,12.90
2008,10,08,14,08,13.00
2008,10,08,14,09,13.00
2008,10,08,14,10,12.90
2008,10,08,14,11,12.80
2008,10,08,14,12,12.80
2008,10,08,14,13,12.80
2008,10,08,14,14,12.80
2008,10,08,14,15,12.90
2008,10,08,14,16,12.90
2008,10,08,14,17,13.00
2008,10,08,14,18,13.00
2008,10,08,14,19,13.10
2008,10,08,14,20,13.10
2008,10,08,14,21,13.20
2008,10,08,14,22,13.20
2008,10,08,14,23,13.20
2008,10,08,14,24,13.20
2008,10,08,14,25,13.20
2008,10,08,14,26,13.30
2008,10,08,14,27,13.30
2008,10,08,14,28,13.30
2008,10,08,14,29,13.30
2008,10,08,14,30,13.40
2008,10,08,14,31,13.40
2008,10,08,14,32,13.50
2008,10,08,14,33,13.50
2008,10,08,14,34,13.60
2008,10,08,14,35,13.60
2008,10,08,14,36,13.60
2008,10,08,14,37,13.60
2008,10,08,14,38,13.60
2008,10,08,14,39,13.60
2008,10,08,14,40,13.60
2008,10,08,14,41,13.60
2008,10,08,14,42,13.60
2008,10,08,14,43,13.50
2008,10,08,14,44,13.50
2008,10,08,14,45,13.60
2008,10,08,14,46,13.60
2008,10,08,14,47,13.60
2008,10,08,14,48,13.60
2008,10,08,14,49,13.70
2008,10,08,14,50,13.70
2008,10,08,14,51,13.80
2008,10,08,14,52,13.80
2008,10,08,14,53,13.80
2008,10,08,14,54,13.90
2008,10,08,14,55,13.90
2008,10,08,14,56,14.00
2008,10,08,14,57,14.10
2008,10,08,14,58,14.20
2008,10,08,14,59,14.30
2008,10,08,15,00,14.30
2008,10,08,15,01,14.30
2008,10,08,15,02,14.30
2008,10,08,15,03,14.30
2008,10,08,15,04,14.30
2008,10,08,15,05,14.30
2008,10,08,15,06,14.30
2008,10,08,15,07,14.20
2008,10,08,15,08,14.10
2008,10,08,15,09,14.10
2008,10,08,15,10,14.10
2008,10,08,15,11,14.10
2008,10,08,15,12,14.20
2008,10,08,15,13,14.20
2008,10,08,15,14,14.30
2008,10,08,15,15,14.40
2008,10,08,15,16,14.40
2008,10,08,15,17,14.50
2008,10,08,15,18,14.60
2008,10,08,15,19,14.70
2008,10,08,15,20,14.70
2008,10,08,15,21,14.70
2008,10,08,15,22,14.80
2008,10,08,15,23,14.80
2008,10,08,15,24,14.70
2008,10,08,15,25,14.70
2008,10,08,15,26,14.60
2008,10,08,15,27,14.60
2008,10,08,15,28,14.60
2008,10,08,15,29,14.60
2008,10,08,15,30,14.60
2008,10,08,15,31,14.60
2008,10,08,15,32,14.60
2008,10,08,15,33,14.60
2008,10,08,15,34,14.60
2008,10,08,15,35,14.70
2008,10,08,15,36,14.70
2008,10,08,15,37,14.70
2008,10,08,15,38,14.70
2008,10,08,15,39,14.70
2008,10,08,15,40,14.70
2008,10,08,15,41,14.70
2008,10,08,15,42,14.60
2008,10,08,15,43,14.50
2008,10,08,15,44,14.50
2008,10,08,15,45,14.40
2008,10,08,15,46,14.30
2008,10,08,15,47,14.20
2008,10,08,15,48,14.00
2008,10,08,15,49,13.90
2008,10,08,15,50,13.80
2008,10,08,15,51,13.70
2008,10,08,15,52,13.60
2008,10,08,15,53,13.40
2008,10,08,15,54,13.30
2008,10,08,15,55,13.20
2008,10,08,15,56,13.10
2008,10,08,15,57,13.10
2008,10,08,15,58,13.10
2008,10,08,15,59,13.00
2008,10,08,16,00,13.00
2008,10,08,16,01,13.00
2008,10,08,16,02,12.90
2008,10,08,16,03,12.90
2008,10,08,16,04,12.90
2008,10,08,16,05,12.90
2008,10,08,16,06,12.80
2008,10,08,16,07,12.80
2008,10,08,16,08,12.80
2008,10,08,16,09,12.70
2008,10,08,16,10,12.70
2008,10,08,16,11,12.70
2008,10,08,16,12,12.70
2008,10,08,16,13,12.70
2008,10,08,16,14,12.70
2008,10,08,16,15,12.70
2008,10,08,16,16,12.70
2008,10,08,16,17,12.60
2008,10,08,16,18,12.60
2008,10,08,16,19,12.60
2008,10,08,16,20,12.50
2008,10,08,16,21,12.50
2008,10,08,16,22,12.50
2008,10,08,16,23,12.50
2008,10,08,16,24,12.50
2008,10,08,16,25,12.50
2008,10,08,16,26,12.50
2008,10,08,16,27,12.50
2008,10,08,16,28,12.50
2008,10,08,16,29,12.50
2008,10,08,16,30,12.50
2008,10,08,16,31,12.50
2008,10,08,16,32,12.60
2008,10,08,16,33,12.60
2008,10,08,16,34,12.60
2008,10,08,16,35,12.60
2008,10,08,16,36,12.60
2008,10,08,16,37,12.60
2008,10,08,16,38,12.60
2008,10,08,16,39,12.70
2008,10,08,16,40,12.80
2008,10,08,16,41,12.80
2008,10,08,16,42,12.80
2008,10,08,16,43,12.80
2008,10,08,16,44,12.80
2008,10,08,16,45,12.90
2008,10,08,16,46,12.90
2008,10,08,16,47,12.90
2008,10,08,16,48,12.90
2008,10,08,16,49,13.00
2008,10,08,16,50,13.00
2008,10,08,16,51,13.00
2008,10,08,16,52,13.00
2008,10,08,16,53,13.00
2008,10,08,16,54,13.00
2008,10,08,16,55,13.00
2008,10,08,16,56,12.90
2008,10,08,16,57,12.90
2008,10,08,16,58,12.90
2008,10,08,16,59,12.80
2008,10,08,17,00,12.80
2008,10,08,17,01,12.70
2008,10,08,17,02,12.60
2008,10,08,17,03,12.60
2008,10,08,17,04,12.60
2008,10,08,17,05,12.50
2008,10,08,17,06,12.40
2008,10,08,17,07,12.40
2008,10,08,17,08,12.30
2008,10,08,17,09,12.30
2008,10,08,17,10,12.30
2008,10,08,17,11,12.30
2008,10,08,17,12,12.20
2008,10,08,17,13,12.20
2008,10,08,17,14,12.20
2008,10,08,17,15,12.20
2008,10,08,17,16,12.10
2008,10,08,17,17,12.10
2008,10,08,17,18,12.10
2008,10,08,17,19,12.10
2008,10,08,17,20,12.10
2008,10,08,17,21,12.00
2008,10,08,17,22,12.00
2008,10,08,17,23,12.00
2008,10,08,17,24,12.00
2008,10,08,17,25,11.90
2008,10,08,17,26,11.90
2008,10,08,17,27,11.90
2008,10,08,17,28,11.80
2008,10,08,17,29,11.80
2008,10,08,17,30,11.80
2008,10,08,17,31,11.80
2008,10,08,17,32,11.80
2008,10,08,17,33,11.70
2008,10,08,17,34,11.70
2008,10,08,17,35,11.70
2008,10,08,17,36,11.70
2008,10,08,17,37,11.70
2008,10,08,17,38,11.70
2008,10,08,17,39,11.70
2008,10,08,17,40,11.60
2008,10,08,17,41,11.60
2008,10,08,17,42,11.60
2008,10,08,17,43,11.60
2008,10,08,17,44,11.60
2008,10,08,17,45,11.60